KUIPER-00087

导读 | 豆包AI

KUIPER-00087是美国亚马逊柯伊伯计划(Project Kuiper)星座中的一颗低轨通信卫星,于2025年7月16日发射入轨。该项目计划部署3236颗卫星,旨在为全球提供高速低延迟的卫星互联网服务,尤其聚焦覆盖偏远地区,作为“太空边缘节点”与亚马逊AWS云服务深度整合,提供云通信一体化网络解决方案,是全球低轨卫星互联网竞争中的重要组网卫星。

Basic Information
目录编号:
64833
目录名称:
KUIPER-00087
国际标识:
2025-151T
轨道中心:
EARTH
卫星名称:
KUIPER-00087
卫星全名:
KUIPER-00087
卫星状态:
在轨 (已飞行287 天)
发射日期:
2025-07-16 UTC
国别 :
美国 (US)
星等 :
--
Orbit Information
数据来源 国际轨道数据 AOE轨道数据
星历时间 2026-04-29T04:31:14+0800
4小时前
查看轨道信息
2026-04-29T00:00:00+0800
8小时前
查看轨道信息
半长轴 7007.704km 7007.747km
偏心率 0.0000828 0.0000763
轨道倾角 51.900° 51.900°
近地点辐角 96.660° 81.896°
升交点赤经 58.744° 59.576°
平近点角 263.445° 354.102°
近地点 628.986km 629.075km
远地点 630.148km 630.145km
周期 97.302分钟 97.303分钟
每日圈数 14.799231 14.799097
Detailed Information
使用方式:
暂无
2D Orbit Map
3D Orbit Map
Orbit Altitude Analysis Chart
Orbit Inclination Analysis Chart
Orbit Comprehensive Analysis Chart
View Comprehensive Chart